CZ-6A DEB, 54335

Orbit data source: Space-Track

CZ-6A DEB, 54335 is space debris in SSO originally from a launch on Fri, 11 Nov 2022 UTC launched from the Taiyaun Space Center, China (TSC). Debris objects in space refer to the collection of defunct objects orbiting the Earth. Examples of debris include non-operational satellites, rocket bodies, and fragments generated from explosions, collisions, or faulty payload assembly.

Loading next visibility...
Identifier
54335, 2022-151CE
Orbit
SSO
Country
Flag of CNCN / PRC
Related business
Manufacturer
SAST
Mission
Spacecraft
Bus & Motor
Unknown
Mass
Unknown
Launch date (UTC)
2022-11-11 (4 years ago)
Launch vehicle
Unknown
Launch site
Taiyaun Space Center, China (TSC)
Object type
Payload
Rocket body
Debris
Shape & HBR
Unknown shape, 0.2 m
Radar Cross Section
Medium (>0.1 m² and <1 m²)

Expand to show TLE details & history
Last TLE update: 12 hours ago

TLE from 12 hours ago
0 CZ-6A DEB
1 54335U 22151CE  26264.28974144  .00000464  00000-0  26782-3 0  9992
2 54335  98.8269 263.6263 0050741  72.3525 288.3179 14.13236507198247
Epoch: 2026-09-21T06:57Z
TLE epoch observation values (Epoch: 2026-09-21T06:57:13.660Z)
Latitude
-0.00005°
Longitude
159.14769°
Altitude
839.861 km
Speed
7.439 km/s
True Right ascension
17h 34m 30s
True Declination
0° 00' 00"
Sunlit
Object was in daylight at epoch
Visualization orbit readout
Latitude
Unknown
Longitude
Unknown
Altitude
Unknown
Speed
Unknown
Apparent Right ascension
Unknown
Apparent Declination
Unknown
Sunlit
N/A
Visualization observer readout
Local Sidereal Time
12:20:15
Azimuth
Unknown
Elevation
Unknown
Doppler factor
Unknown
Orbital elements
Apogee altitude
882.144 km
Perigee altitude
808.837 km
Semi-major axis
7,223.628 km
Eccentricity
0.00507
Inclination
98.8269°
RAAN
263.6263°
Arg. of periapsis
72.3525°
True anomaly
287.76482°
Mean anomaly
288.3179°
Eccentric anomaly
288.04147°
Mean motion
3.53517 °/min
Orbital period
101.83 mins
BSTAR
0.00026782
Loading maneuver chart data...
Computing Atmospheric mass density...
Loading historical data...
Loading historical data...
Loading historical data...
Loading historical data...
Loading historical data...
Loading historical data...
Loading historical data...

Documentation

Showing up to 5 results
|